Atlantic City, NJ

1:19 AM EST on November 20, 2019 (GMT -0500)
The Wheel At Steel Pier | | Change Station

Elev 15 ft 39.36 °N, 74.42 °W | Updated 3 minutes ago

Partly Cloudy
Partly Cloudy
44 °F
Feels Like 41 °F
N
6
Wind Variable Wind from WNW
Gusts 8.0 mph

Today
High -- | Low -- °F
--% Chance of Precip.
Yesterday
High -- | Low -- °F
Precip. -- in
Pressure 29.86 in
Visibility 10.0 miles
Clouds Clear
Windchill 41 °F
Dew Point 32 °F
Humidity 62%
Rainfall 0.00 in
Snow Depth Not available.
6:46 AM 4:39 PM
Last Quarter, 46% visible
METAR KACY 200554Z 34003KT 10SM CLR 05/02 A2986 RMK AO2 SLP111 T00500022 10072 20044 56005
Pressure 29.86 in
Visibility 10.0 miles
Clouds Clear
Windchill 41 °F
Dew Point 32 °F
Humidity 62%
Rainfall 0.00 in
Snow Depth Not available.
6:46 AM 4:39 PM
Last Quarter, 46% visible
METAR KACY 200554Z 34003KT 10SM CLR 05/02 A2986 RMK AO2 SLP111 T00500022 10072 20044 56005

Get Severe Weather Alerts

Thanks for signing up!

Be on the lookout for a verification email in your inbox.

You'll start receiving the daily forecast at 6 AM.

×

10-Day Weather Forecast

Almanac

Astronomy

Nov. 20, 2019 Rise Set
Actual Time
Civil Twilight
Nautical Twilight
Astronomical Twilight
Moon
Length of Visible Light
Length of Day
Tomorrow will be .
, % of the Moon is Illuminated

Today's Extremes

State Highs State Lows

Community

WunderPhotos

Category 6

Welcome to Category 6. This is the collective home for Weather Underground's featured writeups by Dr. Jeff Masters (right), Bob Henson (left), Chris Burt, and other regular contributors.

Nearby

Air Quality

  Air Quality AQ Index Pollutant
Not available.

Snow Depth

Station Depth Elevation

Earthquake Activity

City Distance Mag. Time & Date
Minimum magnitude displayed is 2.5.

Coastal Water Temperatures

Place Temperature

Stations

Nearby Weather Stations

Station Location Temp. Windchill Dew Point Humidity Wind Precip. Elev Updated Type
                   

Watches & Warnings

There are currently no watches in effect.